TimeEST,TemperatureF,Dew PointF,Humidity,Sea Level PressureIn,VisibilityMPH,Wind Direction,Wind SpeedMPH,Gust SpeedMPH,PrecipitationIn,Events,Conditions,WindDirDegrees,DateUTC
12:53 AM,52.0,41.0,66,30.28,10.0,NE,8.1,-,N/A,,Clear,40,2013-01-23 05:53:00
1:53 AM,50.0,39.9,68,30.28,10.0,NE,5.8,-,N/A,,Clear,40,2013-01-23 06:53:00
2:53 AM,48.9,39.9,71,30.28,10.0,NNE,6.9,-,N/A,,Clear,30,2013-01-23 07:53:00
3:53 AM,48.9,41.0,74,30.28,10.0,NE,6.9,-,N/A,,Clear,40,2013-01-23 08:53:00
4:53 AM,50.0,39.0,66,30.29,10.0,NNE,8.1,-,N/A,,Clear,20,2013-01-23 09:53:00
5:53 AM,50.0,37.0,61,30.31,10.0,NNE,9.2,-,N/A,,Clear,20,2013-01-23 10:53:00
6:53 AM,50.0,37.9,63,30.33,10.0,NNE,10.4,-,N/A,,Clear,20,2013-01-23 11:53:00
7:53 AM,51.1,37.9,61,30.34,10.0,NNE,11.5,-,N/A,,Clear,30,2013-01-23 12:53:00
8:53 AM,52.0,37.0,57,30.36,10.0,NNE,10.4,-,N/A,,Clear,30,2013-01-23 13:53:00
9:53 AM,60.1,35.1,39,30.37,10.0,NNE,11.5,-,N/A,,Clear,30,2013-01-23 14:53:00
10:53 AM,64.9,37.0,36,30.37,10.0,NE,12.7,-,N/A,,Clear,50,2013-01-23 15:53:00
11:53 AM,69.1,39.9,35,30.35,10.0,NNE,11.5,16.1,N/A,,Clear,30,2013-01-23 16:53:00
12:53 PM,72.0,39.9,31,30.32,10.0,NE,8.1,-,N/A,,Clear,40,2013-01-23 17:53:00
1:53 PM,73.9,36.0,25,30.30,10.0,NNW,5.8,-,N/A,,Clear,340,2013-01-23 18:53:00
2:53 PM,73.9,33.1,22,30.29,10.0,NNE,12.7,-,N/A,,Clear,30,2013-01-23 19:53:00
3:53 PM,73.9,32.0,21,30.28,10.0,North,9.2,-,N/A,,Clear,360,2013-01-23 20:53:00
4:53 PM,73.0,32.0,22,30.29,10.0,NNE,8.1,-,N/A,,Clear,20,2013-01-23 21:53:00
5:53 PM,63.0,35.1,35,30.30,10.0,NNE,6.9,-,N/A,,Clear,30,2013-01-23 22:53:00
6:53 PM,57.9,37.0,46,30.30,10.0,North,5.8,-,N/A,,Clear,10,2013-01-23 23:53:00
7:53 PM,57.0,39.0,51,30.32,10.0,North,5.8,-,N/A,,Clear,10,2013-01-24 00:53:00
8:53 PM,54.0,39.0,57,30.34,10.0,NNE,5.8,-,N/A,,Clear,20,2013-01-24 01:53:00
9:53 PM,52.0,36.0,54,30.34,10.0,North,4.6,-,N/A,,Clear,10,2013-01-24 02:53:00
10:53 PM,51.1,37.0,59,30.33,10.0,NE,4.6,-,N/A,,Clear,40,2013-01-24 03:53:00
11:53 PM,48.0,39.0,71,30.32,10.0,Calm,Calm,-,N/A,,Clear,0,2013-01-24 04:53:00